Location: Azul
(36.7830°S, 59.8500°W)
Time: 12:59:09
(UTC-03:00)

DX 1 - Pass Details

Date: 24 October 2021
Orbit: 619 x 629 km, 98.4° (Epoch: 29 November)

Event Time Altitude Azimuth Distance (km) Brightness Sun altitude
Rises 20:00:28 0° 21° (NNE) 2,910 ? -7.6°
Reaches altitude 10° 20:02:40 10° 23° (NNE) 2,011 ? -8.0°
Maximum altitude 20:07:00 67° 105° (ESE) 692 ? -8.8°
Drops below altitude 10° 20:11:24 10° 187° (S) 2,034 ? -9.6°
Sets 20:13:38 0° 189° (S) 2,948 ? -10.1°
